STARLINK-34731, 65029

Orbit data source: Space-Track

STARLINK-34731, 65029 is a payload satellite owned by SpaceX/Seattle (US) in LEO that was launched on Wed, 30 Jul 2025 UTC via an FALCON 9 launch vehicle from the Air Force Eastern Test Range (AFETR). Payload-class satellites include a variety of spacecraft equipped with specific instruments for various scientific and technological missions. These include communications satellites like Starlink; space stations such as the ISS; scientific satellites like the Hubble; Earth observation satellites from companies like Planet Labs, Umbra, and HawkEye 360; GPS; miniature CubeSats for education and research; and military/defense satellites.

Loading next visibility...
Identifier
65029, 2025-161Q
Orbit
LEO
Country
Flag of USUS
Related business
Manufacturer
SpaceX/Seattle
Mission
Operational spacecraft
Bus & Motor
STARLINK V2MO, Unknown motor
Mass
575 kg wet, ~530 kg dry
Launch date (UTC)
2025-07-30 (1 month ago)
Launch vehicle
FALCON 9
Launch site
Air Force Eastern Test Range (AFETR)
Object type
Payload
Rocket body
Debris
Shape & HBR
Unknown
Radar Cross Section
Large (>1 m²)

Expand to show TLE details & history
Last TLE update: 12 hours ago

TLE from 12 hours ago
0 STARLINK-34731
1 65029U 25161Q   25242.25001157 -.01893744  00000-0 -48935-1 0  9991
2 65029  53.1599 105.6405 0001431 105.2695  63.3237 15.41902495  6082
Epoch: 2025-08-30T06:00Z
TLE epoch observation values (Epoch: 2025-08-30T06:00:00.999Z)
Latitude
9.07201°
Longitude
-149.88278°
Altitude
440.237 km
Speed
7.65 km/s
True Right ascension
18h 35m 14s
True Declination
9° 00' 58"
Sunlit
Object was in full shadow at epoch
Visualization orbit readout
Latitude
Unknown
Longitude
Unknown
Altitude
Unknown
Speed
Unknown
Apparent Right ascension
Unknown
Apparent Declination
Unknown
Sunlit
N/A
Visualization observer readout
Local Sidereal Time
09:32:24
Azimuth
Unknown
Elevation
Unknown
Doppler factor
Unknown
Orbital elements
Apogee altitude
441.728 km
Perigee altitude
439.777 km
Semi-major axis
6,818.889 km
Eccentricity
0.00014
Inclination
53.1599°
RAAN
105.6405°
Arg. of periapsis
105.2695°
True anomaly
63.33835°
Mean anomaly
63.3237°
Eccentric anomaly
63.33103°
Mean motion
3.85454 °/min
Orbital period
93.4 mins
BSTAR
-0.048935
Loading maneuver chart data...
Computing Atmospheric mass density...
Loading historical data...
Loading historical data...
Loading historical data...
Loading historical data...
Loading historical data...
Loading historical data...
Loading historical data...

Documentation

Showing up to 5 results
|